Location: Cahas Mountain Overlook
(37.0833°N, 80.1000°W)
Time: 19:37:29
(UTC-04:00)

Tiros 1 - Pass Details

Date: 17 February 2026
Orbit: 618 x 649 km, 48.4° (Epoch: 13 March)

Event Time Altitude Azimuth Distance (km) Brightness Sun altitude
Rises 14:37:57 0° 306° (NW) 2,887 10.5 33.2°
Reaches altitude 10° 14:40:17 10° 310° (NW) 1,978 9.7 32.9°
Maximum altitude 14:44:48 63° 32° (NNE) 689 7.5 32.3°
Drops below altitude 10° 14:49:17 10° 113° (ESE) 1,973 9.6 31.8°
Sets 14:51:37 0° 117° (ESE) 2,878 10.4 31.5°
